Flag for Austria Past Weather in Waidhofen an der Thaya, Lower Austria, Austria — Yesterday and Last 2 Weeks

Now
69 °F

Mild.


Feels Like: 69 °F
Forecast: 49 / 69 °F
Wind: 2 mph from West

Location: Retz

Current Time: Aug 29, 2016 at 9:36:08 AM

Latest Report: Aug 29, 2016 at 9:00 AM


Visibility: N/A

Pressure: 29.98 "Hg (28.27 "Hg at 506m altitude)

Humidity: 80%

Dew Point: 63 °F

Location of Waidhofen an der ThayaLocation

Past Weather in Waidhofen an der Thaya — Graph

°F

Waidhofen an der Thaya Temperature Yesterday

Maximum temperature yesterday: 86 °F (at 5:00 PM)
Minimum temperature yesterday: 62 °F (at 7:00 AM)
Average temperature yesterday: 76 °F

High & Low Weather Summary for the Past Weeks

 TemperatureHumidityPressure
High86 °F (Aug 28, 5:00 PM)97% (Aug 20, 5:00 AM)30.36 "Hg (Aug 20, 5:00 AM)
Low56 °F (Aug 18, 6:00 AM)31% (Aug 18, 3:00 PM)29.76 "Hg (Aug 18, 6:00 PM)
Average68 °F66%30.07 "Hg
* Reported Aug 14 8:00 AM — Aug 29 8:00 AM, Waidhofen an der Thaya, Weather by CustomWeather, © 2016

Note: Actual official high and low records may vary slightly from our data, if they occured in-between our weather recording intervals... More about our weather records

Advertising

Waidhofen an der Thaya Weather History for the Previous 24 Hours

Scroll right to see more
 ConditionsComfort  
Time TempWeatherWind HumidityBarometerVisibility
8:00 AM
Mon, Aug 29
69 °FPartly sunny.2 mph78%29.97 "Hg6 mi
7:00 AM66 °FPartly sunny.1 mph84%29.96 "Hg6 mi
6:00 AM66 °FMild.1 mph83%29.96 "HgN/A
5:00 AM66 °FMild.1 mph85%29.97 "HgN/A
4:00 AM69 °FMild.3 mph77%29.97 "HgN/A
3:00 AM69 °FMild.1 mph73%29.97 "HgN/A
2:00 AM71 °FMild.1 mph68%29.97 "HgN/A
1:00 AM72 °FMild.No wind66%29.97 "HgN/A
12:00 AM73 °FMild.1 mph64%29.97 "HgN/A
11:00 PM
Sun, Aug 28
74 °FMild.1 mph62%29.97 "HgN/A
10:00 PM76 °FMild.1 mph59%29.97 "HgN/A
9:00 PM76 °FMild.1 mph58%29.96 "HgN/A
8:00 PM79 °FClear.3 mph55%29.94 "Hg12 mi
7:00 PM83 °FWarm.3 mph50%29.93 "HgN/A
6:00 PM85 °FWarm.2 mph48%29.94 "HgN/A
5:00 PM86 °FWarm.2 mph45%29.95 "HgN/A
4:00 PM85 °FWarm.2 mph44%29.96 "HgN/A
3:00 PM83 °FWarm.3 mph50%29.98 "HgN/A
2:00 PM81 °FSunny.3 mph56%30.00 "Hg11 mi
1:00 PM79 °FWarm.2 mph57%30.01 "HgN/A
12:00 PM76 °FMild.1 mph62%30.03 "HgN/A
11:00 AM74 °FMild.1 mph67%30.05 "HgN/A
10:00 AM70 °FMild.2 mph72%30.06 "HgN/A
9:00 AM69 °FMild.3 mph75%30.05 "HgN/A
Weather by CustomWeather, © 2016

See weather overviewHow to use our weather pages